map of MLX home
MLX - Airport
Location
City:  Malatya, Malatya, Turkey
Name:Erhac
ICAO:LTAT
IATA:MLX

Details
Type:Airport (Aerodrome, Airfield)
Use:Public/Civil, Military
Latitude:3826'07"N (38.435347)
Longitude:3805'28"E (38.091006)
Datum:WGS 1984
Elevation:2828 ft (862 m)
Variation:5.81E (WMM2015v2 magnetic declination)
0.08 annual change
Runways:1
Longest:10990 × 148 ft (3350 × 45 m), paved

Time
Time Zone:UTC+3
Local Time:

Weather
METAR:LTAT 041350Z 34004KT 300V040 9999 FEW040 BKN200 10/M03 Q1028 NOSIG RMK RWY03 35004KT 280V040

Related Locations
Nearby:
Farthest:RVV: 11373 mi / 18303 km
Raivavae, Tubuai Islands, Austral Islands, PF

Find:

   beyond  
but within

Other Information
Maps:
NOTAMs:
Links:
Sources:

  
  • flag of Turkey
  

Sectional Chart

Flight Planning
at skyvector.com

Satellite Image

Google Maps Satellite view

 

Copyright © 2004-2019 Karl L. Swartz. All rights reserved.
The Great Circle Mapper name and logo are trademarks of the Great Circle Mapper.
All other trademarks mentioned herein belong to their respective owners.
Please see credits for attibutions and further copyright information.

  Follow gcmap on Facebook Follow gcmap on Twitter GCmap on LinkedIn

hCard Microformat

Geo Microformat